Flag for Canada Weather past 2 weeks in Rankin Inlet, Nunavut Territory, Canada

Now
-29 °F

Snow flurries. Passing clouds.


Feels Like: -54 °F
Forecast: -32 / -26 °F
Wind: 12 mph from North

Location: Rankin Inlet

Current Time: Mar 3, 2015 at 9:22:05 PM

Latest Report: Mar 3, 2015 at 8:00 PM


Visibility: 15 mi

Pressure: 30.03 "Hg

Humidity: 60%

Dew point: -38 °F

Location of Rankin InletLocation

Historic Weather in Rankin Inlet — Graph

°F

Rankin Inlet temperature yesterday

Maximum temperature yesterday: -22 °F (at 3:00 PM)
Minimum temperature yesterday: -33 °F (at 5:00 AM)
Average temperature yesterday: -28 °F

Past Weeks' High & Low Weather Summary

 TemperatureHumidityPressure
High0 °F (Feb 28, 6:00 AM)84% (Feb 28, 5:00 AM)30.45 "Hg (Feb 28, 5:00 AM)
Low-36 °F (Feb 20, 4:00 AM)59% (Feb 20, 3:00 AM)29.39 "Hg (Feb 28, 10:00 AM)
Average-24 °F68%29.91 "Hg
* Reported Feb 16 8:00 PM — Mar 3 8:00 PM, Rankin Inlet, Weather by CustomWeather, © 2015

Note: Actual official high and low records may vary slightly from our data, if they occured in-between our weather recording intervals... More about our weather records

Advertising

Rankin Inlet weather history for previous 24 hours

 ConditionsComfort  
Time TempWeatherWind HumidityBarometerVisibility
8:00 PM
Tue, Mar 3
-29 °FSnow flurries. Passing clouds.12 mph60%30.03 "Hg15 mi
7:00 PM-29 °FSnow flurries. Low level haze.14 mph67%30.04 "Hg15 mi
6:00 PM-27 °FSnow flurries. Low level haze.16 mph61%30.05 "Hg15 mi
5:00 PM-27 °FSnow flurries. Sunny.15 mph67%30.05 "Hg10 mi
4:00 PM-26 °FSnow flurries. Sunny.15 mph67%30.06 "Hg10 mi
3:00 PM-24 °FSnow flurries. Sunny.16 mph61%30.06 "Hg8 mi
2:00 PM-26 °FSnow flurries. Sunny.17 mph67%30.07 "Hg8 mi
1:00 PM-27 °FSnow flurries. Sunny.14 mph67%30.08 "Hg8 mi
12:00 PM-27 °FSnow flurries. Sunny.13 mph67%30.09 "Hg15 mi
11:00 AM-29 °FSnow flurries. Sunny.12 mph67%30.09 "Hg15 mi
10:00 AM-31 °FSnow flurries. Sunny.7 mph67%30.09 "Hg15 mi
9:00 AM-31 °FSnow flurries. Sunny.8 mph60%30.09 "Hg15 mi
8:00 AM-33 °FSnow flurries. Sunny.13 mph66%30.08 "Hg15 mi
7:00 AM-31 °FSnow flurries. Clear.7 mph60%30.08 "Hg15 mi
6:00 AM-31 °FSnow flurries. Clear.12 mph67%30.07 "Hg15 mi
5:00 AM-29 °FSnow flurries. Clear.13 mph67%30.07 "Hg15 mi
4:00 AM-27 °FSnow flurries. Clear.13 mph67%30.07 "Hg15 mi
3:00 AM-27 °FSnow flurries. Clear.13 mph61%30.06 "Hg15 mi
2:00 AM-29 °FSnow flurries. Clear.12 mph67%30.06 "Hg15 mi
1:00 AM-29 °FSnow flurries. Clear.10 mph67%30.06 "Hg15 mi
12:00 AM-29 °FSnow flurries. Clear.9 mph67%30.05 "Hg15 mi
11:00 PM
Mon, Mar 2
-29 °FSnow flurries. Passing clouds.10 mph67%30.06 "Hg15 mi
10:00 PM-26 °FSnow flurries. Passing clouds.7 mph67%30.04 "Hg15 mi
9:00 PM-24 °FSnow flurries. Passing clouds.7 mph68%30.02 "Hg15 mi
Weather by CustomWeather, © 2015

See weather overviewHow to use our weather pages